Flag for Australia Weather past 2 weeks in Currie, Tasmania, Australia

Now
52 °F

Cool.


Feels Like: 47 °F
Forecast: 56 / 58 °F
Wind: 15 mph from Southwest

Location: King Island Airport

Current Time: Apr 27, 2015 at 8:52:25 AM

Latest Report: Apr 27, 2015 at 8:00 AM


Visibility: N/A

Pressure: 30.18 "Hg

Humidity: 87%

Dew point: 48 °F

Location of CurrieLocation

Historic Weather in Currie — Graph

°F

Currie temperature yesterday

Maximum temperature yesterday: 56 °F (at 2:00 PM)
Minimum temperature yesterday: 52 °F (at 5:00 AM)
Average temperature yesterday: 53 °F

Past Weeks' High & Low Weather Summary

 TemperatureHumidityPressure
High65 °F (Apr 15, 2:00 PM)100% (Apr 13, 8:00 AM)30.66 "Hg (Apr 13, 8:00 AM)
Low40 °F (Apr 13, 3:00 AM)46% (Apr 19, 4:00 PM)29.61 "Hg (Apr 24, 1:00 PM)
Average55 °F81%30.15 "Hg
* Reported Apr 12 6:00 AM — Apr 27 6:00 AM, Currie, Weather by CustomWeather, © 2015

Note: Actual official high and low records may vary slightly from our data, if they occured in-between our weather recording intervals... More about our weather records

Advertising

Currie weather history for previous 24 hours

 ConditionsComfort  
Time TempWeatherWind HumidityBarometerVisibility
6:00 AM
Mon, Apr 27
51 °FOvercast.13 mph84%30.15 "HgN/A
5:00 AM51 °FCool.13 mph87%30.14 "HgN/A
4:00 AM52 °FCool.15 mph79%30.12 "HgN/A
3:00 AM52 °FOvercast.14 mph86%30.13 "HgN/A
2:00 AM53 °FCool.16 mph81%30.13 "HgN/A
1:00 AM51 °FCool.12 mph87%30.12 "HgN/A
12:00 AM51 °FOvercast.9 mph87%30.13 "HgN/A
11:00 PM
Sun, Apr 26
54 °FCool.13 mph71%30.13 "HgN/A
10:00 PM53 °FCool.18 mph74%30.13 "HgN/A
9:00 PM54 °FOvercast.18 mph72%30.11 "HgN/A
8:00 PM53 °FCool.20 mph86%30.11 "HgN/A
7:00 PM52 °FCool.21 mph88%30.09 "HgN/A
6:00 PM53 °FOvercast.17 mph88%30.08 "HgN/A
5:00 PM55 °FCool.20 mph82%30.07 "HgN/A
4:00 PM54 °FCool.18 mph82%30.06 "HgN/A
3:00 PM55 °FOvercast.23 mph79%30.06 "HgN/A
2:00 PM56 °FCool.18 mph71%30.05 "HgN/A
12:00 PM55 °FOvercast.20 mph68%30.06 "HgN/A
11:00 AM55 °FCool.18 mph71%30.06 "HgN/A
10:00 AM54 °FCool.22 mph77%30.06 "HgN/A
9:00 AM53 °FScattered clouds.16 mph77%30.06 "HgN/A
8:00 AM53 °FCool.18 mph80%30.05 "HgN/A
Weather by CustomWeather, © 2015

See weather overviewHow to use our weather pages